Location: Melbourne
(37.8666°S, 145.1333°E)
Time: 19:57:35
(UTC+11:00)

Amateur Radio Satellites - All Passes

Search period start: 27 February 2017 19:27
Search period end: 28 February 2017 19:27
Location: Melbourne, 37.8666°S, 145.1333°E

Satellite Date Start Highest point End Downlink Frequencies (MHz)
Time Altitude Azimuth
NUDT-PHONESAT 27 Feb 19:29:35 19:33:21 63° 79° (E) 19:37:03 437.300
LilacSat-2 27 Feb 19:43:03 19:46:55 65° 257° (WSW) 19:50:45 437.200
BEESAT 2 27 Feb 19:46:19 19:50:14 60° 238° (WSW) 19:54:10 435.950
CUTE-I 27 Feb 19:52:44 19:58:08 81° 255° (WSW) 20:03:29 437.470
ISS 27 Feb 19:55:17 19:58:25 46° 44° (NE) 20:01:37 437.550
STRAND 1 27 Feb 20:04:18 20:09:26 77° 283° (WNW) 20:14:38 437.568
SEEDS 27 Feb 20:08:39 20:11:03 15° 88° (E) 20:13:26 437.485
SO-50 27 Feb 20:10:04 20:14:55 78° 299° (WNW) 20:19:43 436.795
XW-2A 27 Feb 20:13:35 20:16:45 34° 82° (E) 20:19:52 145.665 - 145.685
Tancredo 1 27 Feb 20:16:12 20:19:25 87° 38° (NE) 20:22:41 437.200
KAITUO 1B 27 Feb 20:31:28 20:34:22 21° 250° (WSW) 20:37:16 145.475/437.950
XW-2F 27 Feb 20:40:02 20:42:13 15° 248° (WSW) 20:44:23 145.980 - 146.000
XW-2D 27 Feb 20:46:29 20:47:58 12° 246° (WSW) 20:49:28 145.860 - 145.880
CUTE 1.7 + AOD 2 27 Feb 20:48:58 20:53:20 68° 79° (ENE) 20:57:37 437.475
O/OREOS (USA 219) 27 Feb 20:50:46 20:54:50 31° 118° (ESE) 20:58:50 437.305
XW-2B 27 Feb 20:52:05 20:53:02 11° 245° (WSW) 20:53:59 145.730 - 145.750
PRISM 27 Feb 20:54:34 20:56:45 14° 115° (ESE) 20:58:55 437.425
DOVE 4 27 Feb 21:05:47 21:06:35 10° 241° (WSW) 21:07:22 437.250
HO-68 27 Feb 21:09:33 21:16:52 87° 75° (ENE) 21:24:07 435.675
AAUSAT CUBESAT 2 27 Feb 21:26:14 21:30:26 56° 80° (E) 21:34:35 437.432
CUBEBUG 2 27 Feb 21:27:23 21:31:37 77° 77° (ENE) 21:35:51 437.445
AO-73 27 Feb 21:28:53 21:32:23 24° 84° (E) 21:35:53 145.935
ISS 27 Feb 21:32:26 21:35:02 21° 208° (SSW) 21:37:40 437.550
Oscar 11 27 Feb 21:33:05 21:36:42 24° 85° (E) 21:40:17 .
TIGRISAT 27 Feb 21:39:14 21:42:01 16° 114° (ESE) 21:44:47 435.000
UNISAT 6 27 Feb 21:39:18 21:42:17 18° 113° (ESE) 21:45:16 437.425
SEEDS 27 Feb 21:42:49 21:46:56 43° 253° (WSW) 21:50:59 437.485
XW-2A 27 Feb 21:48:01 21:49:10 11° 247° (WSW) 21:50:19 145.665 - 145.685
Tancredo 1 27 Feb 21:54:04 21:56:05 15° 203° (SSW) 21:58:06 437.200
UWE-3 27 Feb 22:00:37 22:04:51 71° 256° (WSW) 22:09:06 435.000/436.395/437.385
YUBILEINY 27 Feb 22:10:23 22:17:10 26° 98° (E) 22:24:00 435.215
ZACube-1 27 Feb 22:17:06 22:21:22 81° 257° (WSW) 22:25:40 437.345
FO-29 27 Feb 22:20:29 22:25:05 26° 113° (ESE) 22:29:26 435.910
PRISM 27 Feb 22:27:32 22:31:34 47° 280° (W) 22:35:40 437.425
CUTE 1.7 + AOD 2 27 Feb 22:27:43 22:28:32 10° 243° (WSW) 22:29:22 437.475
O/OREOS (USA 219) 27 Feb 22:30:30 22:34:02 22° 281° (WNW) 22:37:32 437.305
DELFI C3 27 Feb 22:41:36 22:45:33 45° 81° (E) 22:49:25 145.870
AIST 2D 27 Feb 22:52:29 22:53:30 11° 113° (ESE) 22:54:30 435.315
HO-68 27 Feb 22:59:07 23:03:38 18° 237° (WSW) 23:08:08 435.675
AAUSAT CUBESAT 2 27 Feb 23:03:46 23:05:22 12° 245° (WSW) 23:06:58 437.432
AO-73 27 Feb 23:05:00 23:08:31 25° 250° (WSW) 23:12:03 145.935
Oscar 11 27 Feb 23:09:02 23:12:45 27° 250° (WSW) 23:16:26 .
TIGRISAT 27 Feb 23:14:06 23:18:21 42° 279° (W) 23:22:34 435.000
UNISAT 6 27 Feb 23:14:30 23:18:42 39° 278° (W) 23:22:52 437.425
DUCHIFAT 1 27 Feb 23:36:04 23:39:27 23° 111° (ESE) 23:42:50 145.980
EO-79 27 Feb 23:48:36 23:52:34 38° 108° (ESE) 23:56:34 145.935-145.965
ESTCUBE 1 27 Feb 23:50:33 23:53:42 18° 87° (E) 23:56:49 437.505/2401.250
NANOSAT C BR1 28 Feb 00:04:03 00:08:12 54° 106° (ESE) 00:12:24 145.865
YUBILEINY 28 Feb 00:04:38 00:13:13 62° 259° (W) 00:21:58 435.215
FO-29 28 Feb 00:04:38 00:10:02 38° 279° (W) 00:15:03 435.910
POLYITAN 1 28 Feb 00:06:29 00:10:42 64° 104° (ESE) 00:14:58 437.675
QB50P2 28 Feb 00:09:29 00:13:46 75° 105° (ESE) 00:18:04 145.880/145.840
AO-85 28 Feb 00:13:10 00:15:46 13° 141° (SE) 00:18:21 145.980
DELFI C3 28 Feb 00:17:55 00:19:54 13° 246° (WSW) 00:21:52 145.870
LO-87 28 Feb 00:21:59 00:25:40 88° 259° (W) 00:29:16 145.935 - 145.965
AIST 2D 28 Feb 00:22:59 00:26:19 39° 278° (W) 00:29:41 435.315
BUGSAT 1 28 Feb 00:24:34 00:28:10 28° 110° (ESE) 00:31:45 437.445
50 SAT 28 Feb 00:43:47 00:44:58 11° 88° (E) 00:46:07 437.505
Tancredo 1 28 Feb 01:09:50 01:11:04 12° 162° (SSE) 01:12:19 437.200
DUCHIFAT 1 28 Feb 01:11:22 01:14:58 27° 276° (W) 01:18:36 145.980
Gurwin Techsat 1B 28 Feb 01:15:20 01:18:55 19° 116° (ESE) 01:22:32 435.225
EO-79 28 Feb 01:25:47 01:28:28 16° 273° (W) 01:31:08 145.935-145.965
ESTCUBE 1 28 Feb 01:26:19 01:30:37 40° 251° (WSW) 01:34:53 437.505/2401.250
DX 1 28 Feb 01:27:17 01:31:03 27° 84° (E) 01:34:46 434.975-435.025
SPROUT 28 Feb 01:34:25 01:38:43 66° 80° (E) 01:42:57 437.525
UKube-1 28 Feb 01:35:15 01:38:47 23° 84° (E) 01:42:17 .
VELOX 1 28 Feb 01:42:14 01:46:46 83° 255° (WSW) 01:51:12 145.980
NANOSAT C BR1 28 Feb 01:42:49 01:44:13 11° 271° (W) 01:45:37 145.865
Oscar 19 28 Feb 01:50:45 01:55:55 71° 106° (ESE) 02:01:10 437.125/150
AO-85 28 Feb 01:51:47 01:57:12 74° 121° (ESE) 02:02:26 145.980
AO-7 28 Feb 01:56:29 02:00:48 15° 131° (SE) 02:05:06 .
BUGSAT 1 28 Feb 02:00:09 02:03:28 22° 275° (W) 02:06:47 437.445
YUBILEINY 28 Feb 02:11:10 02:12:04 10° 238° (WSW) 02:12:57 435.215
50 SAT 28 Feb 02:14:51 02:18:14 37° 253° (WSW) 02:21:34 437.505
ISS 28 Feb 02:24:37 02:27:39 31° 148° (SSE) 02:30:40 437.550
ITAMSAT 1 28 Feb 02:31:31 02:34:48 17° 117° (ESE) 02:38:05 435.822/435.867
Tancredo 1 28 Feb 02:44:46 02:47:58 49° 144° (SE) 02:51:09 437.200
Gurwin Techsat 1B 28 Feb 02:53:09 02:58:22 55° 281° (W) 03:03:41 435.225
DX 1 28 Feb 03:03:30 03:07:06 25° 248° (WSW) 03:10:40 434.975-435.025
UKube-1 28 Feb 03:11:01 03:14:46 28° 249° (WSW) 03:18:27 .
SPROUT 28 Feb 03:13:12 03:14:01 10° 243° (WSW) 03:14:50 437.525
BEESAT 3 28 Feb 03:22:38 03:26:10 34° 126° (SE) 03:29:40 437.485
Oscar 19 28 Feb 03:33:35 03:35:43 12° 270° (W) 03:37:51 437.125/150
AO-85 28 Feb 03:34:19 03:37:01 14° 286° (WNW) 03:39:39 145.980
AO-7 28 Feb 03:43:50 03:52:04 72° 111° (ESE) 04:00:25 .
NO-84 28 Feb 03:57:00 03:59:37 16° 56° (NE) 04:02:10 435.350 FM
ISS 28 Feb 04:01:14 04:04:02 25° 312° (NW) 04:06:48 437.550
ITUPSAT 1 28 Feb 04:05:05 04:09:55 67° 78° (ENE) 04:14:42 437.325
BEESAT 2 28 Feb 04:05:42 04:09:24 41° 125° (SE) 04:13:05 435.950
ITAMSAT 1 28 Feb 04:08:37 04:13:44 58° 281° (W) 04:18:56 435.822/435.867
BEESAT 28 Feb 04:10:09 04:15:00 78° 78° (ENE) 04:19:48 436.000
MOZHAYETS 4 28 Feb 04:11:35 04:15:38 28° 84° (E) 04:19:38
Tancredo 1 28 Feb 04:22:02 04:23:56 15° 309° (NW) 04:25:49 437.200
PCSat 28 Feb 04:22:36 04:27:46 48° 68° (ENE) 04:32:59 145.827
BEESAT 3 28 Feb 05:00:59 05:03:28 17° 290° (WNW) 05:05:56 437.485
CUBESAT XI-V 28 Feb 05:17:16 05:21:02 23° 86° (E) 05:24:46 437.345
NO-84 28 Feb 05:32:47 05:37:01 62° 223° (SW) 05:40:58 435.350 FM
CUTE-I 28 Feb 05:35:09 05:38:33 17° 117° (ESE) 05:41:58 437.470
RS-15 28 Feb 05:38:01 05:48:53 56° 68° (ENE) 05:59:25 29.354- 29.394
AO-7 28 Feb 05:39:16 05:45:26 23° 274° (W) 05:51:41 .
BEESAT 2 28 Feb 05:44:42 05:46:48 14° 289° (WNW) 05:48:53 435.950
ITUPSAT 1 28 Feb 05:44:57 05:47:09 13° 242° (WSW) 05:49:19 437.325
XW-2F 28 Feb 05:45:26 05:47:25 14° 113° (ESE) 05:49:25 145.980 - 146.000
MOZHAYETS 4 28 Feb 05:48:47 05:52:39 26° 249° (WSW) 05:56:30
BEESAT 28 Feb 05:50:38 05:52:05 11° 241° (WSW) 05:53:31 436.000
XW-2D 28 Feb 05:50:55 05:53:28 17° 112° (ESE) 05:56:00 145.860 - 145.880
XW-2B 28 Feb 05:55:49 05:58:32 19° 111° (ESE) 06:01:17 145.730 - 145.750
KKS-1 28 Feb 06:02:12 06:06:43 73° 255° (WSW) 06:11:08 437.445
XW-2C 28 Feb 06:04:09 06:07:14 24° 109° (ESE) 06:10:21 145.795 - 145.815
PCSat 28 Feb 06:07:02 06:11:23 24° 231° (SW) 06:15:47 145.827
NUDT-PHONESAT 28 Feb 06:07:49 06:10:42 21° 110° (ESE) 06:13:36 437.300
M-CUBED/EXP-1 PRIME 28 Feb 06:11:10 06:14:20 22° 82° (E) 06:17:17 437.505
LilacSat-2 28 Feb 06:22:55 06:26:32 43° 106° (ESE) 06:30:12 437.200
DOVE 4 28 Feb 06:27:04 06:32:20 63° 105° (ESE) 06:37:37 437.250
STARS 28 Feb 06:29:40 06:34:07 83° 254° (WSW) 06:38:30 437.465
CUBESAT XI-V 28 Feb 06:54:08 06:58:26 34° 251° (WSW) 07:02:40 437.345
KAITUO 1B 28 Feb 07:08:42 07:12:22 57° 280° (W) 07:16:06 145.475/437.950
CUTE-I 28 Feb 07:12:46 07:18:04 60° 281° (W) 07:23:25 437.470
NO-84 28 Feb 07:13:27 07:15:18 13° 207° (SSW) 07:17:07 435.350 FM
XW-2F 28 Feb 07:17:44 07:21:13 36° 278° (W) 07:24:45 145.980 - 146.000
XW-2D 28 Feb 07:24:08 07:27:25 28° 276° (W) 07:30:46 145.860 - 145.880
XW-2B 28 Feb 07:29:22 07:32:33 25° 276° (W) 07:35:46 145.730 - 145.750
HO-68 28 Feb 07:35:46 07:42:43 54° 112° (ESE) 07:49:43 435.675
XW-2C 28 Feb 07:38:34 07:41:22 20° 275° (W) 07:44:12 145.795 - 145.815
CUTE 1.7 + AOD 2 28 Feb 07:39:43 07:43:36 36° 108° (ESE) 07:47:34 437.475
NUDT-PHONESAT 28 Feb 07:41:36 07:44:31 22° 275° (W) 07:47:28 437.300
M-CUBED/EXP-1 PRIME 28 Feb 07:45:19 07:48:45 26° 243° (WSW) 07:51:57 437.505
RS-15 28 Feb 07:51:06 08:01:30 43° 226° (SW) 08:11:45 29.354- 29.394
LilacSat-2 28 Feb 07:59:59 08:01:02 11° 271° (W) 08:02:06 437.200
DOVE 4 28 Feb 08:07:20 08:10:21 15° 271° (W) 08:13:23 437.250
AAUSAT CUBESAT 2 28 Feb 08:14:38 08:18:13 29° 109° (ESE) 08:21:52 437.432
XW-2A 28 Feb 08:15:27 08:18:44 42° 279° (W) 08:22:03 145.665 - 145.685
STRAND 1 28 Feb 08:16:47 08:21:40 42° 82° (E) 08:26:31 437.568
CUBEBUG 2 28 Feb 08:23:17 08:27:36 50° 106° (ESE) 08:31:51 437.445
AO-73 28 Feb 08:23:33 08:26:06 16° 113° (ESE) 08:28:40 145.935
YUBILEINY 28 Feb 08:25:18 08:26:54 10° 122° (ESE) 08:28:28 435.215
Oscar 11 28 Feb 08:26:57 08:29:34 16° 114° (ESE) 08:32:13 .
SEEDS 28 Feb 08:31:58 08:36:10 82° 281° (W) 08:40:27 437.485
UWE-3 28 Feb 08:55:20 08:59:41 71° 104° (ESE) 09:03:59 435.000/436.395/437.385
ZACube-1 28 Feb 09:10:45 09:14:58 61° 105° (ESE) 09:19:10 437.345
CUTE 1.7 + AOD 2 28 Feb 09:16:48 09:19:33 17° 273° (W) 09:22:20 437.475
HO-68 28 Feb 09:24:49 09:30:41 27° 275° (W) 09:36:38 435.675
DELFI C3 28 Feb 09:25:49 09:28:50 21° 111° (ESE) 09:31:53 145.870
AAUSAT CUBESAT 2 28 Feb 09:50:31 09:53:40 21° 274° (W) 09:56:51 437.432
STRAND 1 28 Feb 09:56:37 10:00:32 22° 246° (WSW) 10:04:26 437.568
AO-73 28 Feb 09:57:59 10:02:00 40° 278° (W) 10:06:01 145.935
Oscar 11 28 Feb 10:01:12 10:05:19 42° 278° (W) 10:09:30 .
CUBEBUG 2 28 Feb 10:02:21 10:04:27 13° 272° (W) 10:06:31 437.445
PRISM 28 Feb 10:11:00 10:14:33 26° 84° (E) 10:18:01 437.425
RS-15 28 Feb 10:11:33 10:17:58 17° 194° (SSW) 10:24:23 29.354- 29.394
YUBILEINY 28 Feb 10:16:51 10:25:42 63° 100° (E) 10:34:26 435.215
JUGNU 28 Feb 10:20:58 10:23:35 13° 3° (N) 10:26:12 437.505
SO-50 28 Feb 10:22:23 10:26:48 51° 64° (ENE) 10:31:22 436.795
ESTCUBE 1 28 Feb 10:49:11 10:51:34 14° 116° (ESE) 10:53:59 437.505/2401.250
LO-87 28 Feb 10:56:28 10:59:36 27° 109° (ESE) 11:02:47 145.935 - 145.965
DELFI C3 28 Feb 11:00:02 11:03:26 27° 276° (W) 11:06:55 145.870
O/OREOS (USA 219) 28 Feb 11:00:41 11:05:09 50° 74° (ENE) 11:09:39 437.305
TIGRISAT 28 Feb 11:07:03 11:11:11 42° 81° (E) 11:15:18 435.000
UNISAT 6 28 Feb 11:07:31 11:11:43 46° 81° (E) 11:15:54 437.425
FO-29 28 Feb 11:14:12 11:18:59 27° 83° (E) 11:24:08 435.910
PRISM 28 Feb 11:46:19 11:49:42 24° 248° (WSW) 11:53:02 437.425
AIST 2D 28 Feb 11:50:45 11:53:01 16° 86° (E) 11:55:17 435.315
POLYITAN 1 28 Feb 11:55:17 11:56:48 12° 89° (E) 11:58:20 437.675
QB50P2 28 Feb 11:57:45 11:59:58 14° 88° (E) 12:02:10 145.880/145.840
SO-50 28 Feb 12:04:14 12:07:35 19° 226° (SW) 12:11:00 436.795
NO-84 28 Feb 12:09:33 12:12:36 33° 142° (SE) 12:15:25 435.350 FM
JUGNU 28 Feb 12:09:39 12:11:43 12° 353° (N) 12:13:48 437.505
YUBILEINY 28 Feb 12:14:50 12:21:44 26° 262° (W) 12:28:38 435.215
DX 1 28 Feb 12:21:23 12:24:37 20° 113° (ESE) 12:27:51 434.975-435.025
ESTCUBE 1 28 Feb 12:23:26 12:27:52 54° 280° (W) 12:32:22 437.505/2401.250
SPROUT 28 Feb 12:25:47 12:29:48 39° 108° (ESE) 12:33:52 437.525
UKube-1 28 Feb 12:28:35 12:31:24 17° 114° (ESE) 12:34:14 .
RS-15 28 Feb 12:29:05 12:36:32 20° 156° (SSE) 12:44:03 29.354- 29.394
LO-87 28 Feb 12:30:37 12:33:03 17° 274° (W) 12:35:32 145.935 - 145.965
VELOX 1 28 Feb 12:37:10 12:41:38 69° 105° (ESE) 12:46:09 145.980
O/OREOS (USA 219) 28 Feb 12:41:57 12:44:52 16° 237° (WSW) 12:47:46 437.305
TIGRISAT 28 Feb 12:44:53 12:47:30 16° 246° (WSW) 12:50:08 435.000
UNISAT 6 28 Feb 12:45:37 12:48:01 15° 246° (WSW) 12:50:25 437.425
50 SAT 28 Feb 12:46:30 12:49:59 56° 106° (ESE) 12:53:32 437.505
DUCHIFAT 1 28 Feb 12:56:21 13:00:30 52° 80° (E) 13:04:35 145.980
FO-29 28 Feb 12:58:54 13:04:05 39° 251° (WSW) 13:09:45 435.910
EO-79 28 Feb 13:10:14 13:14:32 87° 259° (WSW) 13:18:45 145.935-145.965
PCSat 28 Feb 13:12:25 13:17:04 28° 128° (SE) 13:21:41 145.827
SRMSAT 28 Feb 13:13:33 13:16:09 13° 1° (N) 13:18:46 437.500
AIST 2D 28 Feb 13:23:14 13:26:15 26° 252° (WSW) 13:29:14 435.315
NANOSAT C BR1 28 Feb 13:25:34 13:29:47 62° 255° (WSW) 13:33:56 145.865
POLYITAN 1 28 Feb 13:28:44 13:32:53 52° 254° (WSW) 13:36:59 437.675
QB50P2 28 Feb 13:31:54 13:35:59 44° 253° (WSW) 13:39:59 145.880/145.840
BUGSAT 1 28 Feb 13:42:37 13:46:39 58° 79° (E) 13:50:37 437.445
NO-84 28 Feb 13:47:57 13:49:56 16° 304° (WNW) 13:51:50 435.350 FM
DX 1 28 Feb 13:56:29 14:00:31 35° 278° (W) 14:04:37 434.975-435.025
UKube-1 28 Feb 14:02:57 14:07:04 41° 279° (W) 14:11:14 .
SPROUT 28 Feb 14:03:07 14:05:51 16° 273° (W) 14:08:35 437.525
Oscar 19 28 Feb 14:04:39 14:09:11 29° 84° (E) 14:13:39 437.125/150
DUCHIFAT 1 28 Feb 14:33:50 14:35:41 13° 245° (WSW) 14:37:32 145.980
RS-15 28 Feb 14:41:11 14:51:59 58° 127° (SE) 15:03:06 29.354- 29.394
PCSat 28 Feb 14:55:30 15:00:33 40° 291° (WNW) 15:05:33 145.827
SRMSAT 28 Feb 15:02:58 15:04:27 11° 351° (N) 15:05:55 437.500
ITUPSAT 1 28 Feb 15:09:47 15:14:30 63° 106° (ESE) 15:19:17 437.325
Gurwin Techsat 1B 28 Feb 15:11:03 15:16:27 69° 78° (ENE) 15:21:45 435.225
MOZHAYETS 4 28 Feb 15:12:00 15:15:34 23° 112° (ESE) 15:19:09
BEESAT 28 Feb 15:14:27 15:19:12 72° 105° (ESE) 15:24:02 436.000
BUGSAT 1 28 Feb 15:20:39 15:21:27 11° 244° (WSW) 15:22:17 437.445
Oscar 19 28 Feb 15:43:48 15:48:27 32° 248° (WSW) 15:53:02 437.125/150
AO-7 28 Feb 15:48:28 15:55:10 26° 85° (E) 16:01:46 .
AO-85 28 Feb 16:04:23 16:08:35 36° 68° (ENE) 16:13:06 145.980
CUBESAT XI-V 28 Feb 16:19:13 16:22:29 19° 114° (ESE) 16:25:46 437.345
ITAMSAT 1 28 Feb 16:23:11 16:28:21 58° 79° (E) 16:33:29 435.822/435.867
MOZHAYETS 4 28 Feb 16:48:25 16:52:31 32° 277° (W) 16:56:40
ITUPSAT 1 28 Feb 16:50:50 16:52:44 12° 271° (W) 16:54:38 437.325
Gurwin Techsat 1B 28 Feb 16:52:49 16:55:45 15° 242° (WSW) 16:58:39 435.225
RS-15 28 Feb 16:54:04 17:03:53 39° 288° (WNW) 17:14:05 29.354- 29.394
M-CUBED/EXP-1 PRIME 28 Feb 16:54:11 16:58:04 26° 116° (ESE) 17:01:59 437.505
BEESAT 28 Feb 16:56:42 16:57:27 10° 270° (W) 16:58:13 436.000
KKS-1 28 Feb 16:57:55 17:02:25 81° 104° (ESE) 17:06:59 437.445
STARS 28 Feb 17:23:58 17:28:23 69° 106° (ESE) 17:32:51 437.465
AO-7 28 Feb 17:40:04 17:48:24 66° 248° (WSW) 17:56:40 .
AO-85 28 Feb 17:45:02 17:49:06 27° 228° (SW) 17:53:27 145.980
CUBESAT XI-V 28 Feb 17:55:05 17:59:29 41° 278° (W) 18:03:59 437.345
BEESAT 2 28 Feb 17:58:14 17:59:11 11° 72° (ENE) 18:00:07 435.950
ITAMSAT 1 28 Feb 18:04:01 18:07:18 17° 243° (WSW) 18:10:35 435.822/435.867
M-CUBED/EXP-1 PRIME 28 Feb 18:28:07 18:32:18 32° 281° (WNW) 18:36:34 437.505
DOVE 4 28 Feb 18:29:38 18:32:47 18° 88° (E) 18:35:47 437.250
KAITUO 1B 28 Feb 18:42:49 18:45:09 15° 87° (E) 18:47:27 145.475/437.950
BEESAT 3 28 Feb 18:47:40 18:51:34 70° 239° (WSW) 18:55:29 437.485
XW-2F 28 Feb 18:51:49 18:54:59 24° 84° (E) 18:58:09 145.980 - 146.000
SO-50 28 Feb 18:55:22 18:59:40 31° 129° (SE) 19:03:56 436.795
XW-2D 28 Feb 18:58:05 19:01:33 31° 83° (E) 19:04:59 145.860 - 145.880
XW-2B 28 Feb 19:03:08 19:06:42 34° 82° (E) 19:10:13 145.730 - 145.750
ISS 28 Feb 19:03:23 19:06:01 22° 48° (NE) 19:08:40 437.550
XW-2C 28 Feb 19:11:46 19:15:30 45° 81° (E) 19:19:12 145.795 - 145.815
NUDT-PHONESAT 28 Feb 19:13:07 19:16:39 37° 82° (E) 19:20:09 437.300
Tancredo 1 28 Feb 19:21:07 19:24:06 36° 45° (NE) 19:27:08 437.200
